Evansville, IN

9:39 PM CST on December 14, 2017 (GMT -0600)
Evansville Regional

Weather History for KEVV - March, 2013

Change the Weather History Date:

Monday, March 25, 2013

  Actual Average Record
Temperature  
Mean Temperature 34 °F 49 °F  
Max Temperature 36 °F 60 °F 82 °F (1929)
Min Temperature 32 °F 38 °F 18 °F (1955)
Degree Days  
Heating Degree Days 31 16  
Month to date heating degree days 653 500  
Since 1 July heating degree days 4016 4074  
Cooling Degree Days 0 0  
Month to date cooling degree days 0 0  
Year to date cooling degree days 0 0  
Moisture  
Dew Point 28 °F    
Average Humidity 80    
Maximum Humidity 89    
Minimum Humidity 70    
Precipitation  
Precipitation 0.06 in 0.15 in 4.01 in (1913)
Month to date precipitation 3.85 3.36  
Year to date precipitation 13.38 9.63  
Snow  
Snow T in 0.00 in 1.30 in (1971)
Month to date snowfall T 0.9  
Since 1 July snowfall 12.3 11.6  
Snow Depth 0.00 in    
Sea Level Pressure  
Sea Level Pressure 29.91 in    
Wind  
Wind Speed 15 mph (WNW)    
Max Wind Speed 23 mph    
Max Gust Speed 30 mph    
Visibility 4 miles    
Events Snow    
T = Trace of Precipitation, MM = Missing Value Source: NWS Daily Summary

Daily Weather History Graph

Daily Weather History Graph

Search for Another Location

Airport or City:

Trip Planner

Search our weather history database for the weather conditions in past years. The results will help you decide how hot, cold, wet, or windy it might be!

Date:

Astronomy

Mar. 25, 2013 Rise Set
Actual Time 6:45 AM CDT 7:06 PM CDT
Civil Twilight 6:19 AM CDT 7:33 PM CDT
Nautical Twilight 5:48 AM CDT 8:04 PM CDT
Astronomical Twilight 5:16 AM CDT 8:35 PM CDT
Moon 5:39 PM CDT (3/25) 5:27 AM CDT (3/25)
Length of Visible Light 13h 14m
Length of Day
12h 21m
Waxing Gibbous, 96% of the Moon is Illuminated
Mar 25
Waxing Gibbous
Mar 27
Full
Apr 2
Last Quarter
Apr 10
New
Apr 18
First Quarter

Hourly Weather History & Observations

Time (CDT) Temp. Windchill Dew Point Humidity Pressure Visibility Wind Dir Wind Speed Gust Speed Precip Events Conditions
12:10 AM 33.8 °F 23.5 °F 28.4 °F 81% 29.62 in 9.0 mi WNW 16.1 mph 26.5 mph 0.00 in   Overcast
12:54 AM 33.1 °F 22.6 °F 28.9 °F 85% 29.66 in 10.0 mi WNW 16.1 mph 24.2 mph 0.00 in   Overcast
1:08 AM 33.8 °F 23.9 °F 28.4 °F 81% 29.65 in 10.0 mi WNW 15.0 mph 25.3 mph N/A   Overcast
1:43 AM 33.8 °F 24.8 °F 28.4 °F 81% 29.67 in 3.0 mi West 12.7 mph 20.7 mph 0.00 in Snow Light Snow
1:54 AM 33.1 °F 22.2 °F 28.0 °F 82% 29.68 in 2.0 mi West 17.3 mph 27.6 mph 0.00 in Snow Light Snow
2:02 AM 33.8 °F 25.8 °F 28.4 °F 81% 29.67 in 3.0 mi West 10.4 mph - 0.00 in Snow Light Snow
2:11 AM 33.8 °F 24.3 °F 28.4 °F 81% 29.67 in 6.0 mi West 13.8 mph 23.0 mph 0.00 in Snow Light Snow
2:54 AM 33.1 °F 21.2 °F 28.9 °F 85% 29.69 in 5.0 mi WNW 20.7 mph 29.9 mph 0.00 in Snow Light Snow
3:54 AM 33.1 °F 21.2 °F 28.9 °F 85% 29.70 in 6.0 mi WNW 20.7 mph 26.5 mph 0.00 in Snow Light Snow
4:37 AM 33.8 °F 24.3 °F 28.4 °F 81% 29.70 in 7.0 mi WNW 13.8 mph 25.3 mph 0.00 in Snow Light Snow
4:51 AM 33.8 °F 23.9 °F 28.4 °F 81% 29.70 in 7.0 mi WNW 15.0 mph 24.2 mph 0.00 in Snow Light Snow
4:54 AM 33.1 °F 22.6 °F 28.0 °F 82% 29.71 in 7.0 mi WNW 16.1 mph - 0.00 in Snow Light Snow
5:54 AM 32.0 °F 22.1 °F 28.0 °F 85% 29.74 in 3.0 mi West 13.8 mph - 0.00 in Snow Light Snow
6:54 AM 32.0 °F 20.8 °F 28.0 °F 85% 29.77 in 3.0 mi WNW 17.3 mph 23.0 mph 0.00 in Snow Light Snow
7:54 AM 32.0 °F 22.1 °F 28.0 °F 85% 29.79 in 7.0 mi WNW 13.8 mph 25.3 mph 0.00 in   Overcast
8:54 AM 32.0 °F 22.1 °F 28.0 °F 85% 29.83 in 2.5 mi WNW 13.8 mph 24.2 mph 0.00 in Snow Light Snow
9:00 AM 32.0 °F 20.8 °F 28.4 °F 87% 29.82 in 1.8 mi WNW 17.3 mph 23.0 mph 0.00 in Snow Light Snow
9:08 AM 32.0 °F 21.6 °F 28.4 °F 87% 29.82 in 1.2 mi WNW 15.0 mph 25.3 mph 0.00 in Snow Light Snow
9:15 AM 32.0 °F 21.2 °F 28.4 °F 87% 29.82 in 1.5 mi WNW 16.1 mph 25.3 mph 0.00 in Snow Light Snow
9:38 AM 33.8 °F 23.5 °F 28.4 °F 81% 29.83 in 3.0 mi WNW 16.1 mph 23.0 mph 0.00 in Snow Light Snow
9:47 AM 33.8 °F 24.3 °F 28.4 °F 81% 29.84 in 4.0 mi WNW 13.8 mph - 0.00 in Snow Light Snow
9:54 AM 33.1 °F 23.4 °F 28.0 °F 82% 29.86 in 4.0 mi WNW 13.8 mph - 0.00 in Snow Light Snow
10:54 AM 33.1 °F 22.2 °F 27.0 °F 78% 29.89 in 10.0 mi NW 17.3 mph - 0.00 in   Overcast
11:54 AM 33.1 °F 23.0 °F 27.0 °F 78% 29.91 in 5.0 mi WNW 15.0 mph 28.8 mph N/A   Overcast
12:54 PM 35.1 °F 25.9 °F 27.0 °F 72% 29.92 in 8.0 mi WNW 13.8 mph 26.5 mph N/A   Overcast
1:54 PM 34.0 °F 23.0 °F 26.1 °F 73% 29.94 in 9.0 mi WNW 18.4 mph 24.2 mph 0.00 in Snow Light Snow
2:23 PM 35.6 °F 26.6 °F 26.6 °F 70% 29.93 in 9.0 mi WNW 13.8 mph 23.0 mph 0.00 in   Overcast
2:33 PM 35.6 °F 25.2 °F 26.6 °F 70% 29.93 in 10.0 mi WNW 18.4 mph 23.0 mph 0.00 in   Overcast
2:54 PM 35.1 °F 25.5 °F 27.0 °F 72% 29.95 in 10.0 mi WNW 15.0 mph 20.7 mph 0.00 in Snow Light Snow
3:51 PM 35.6 °F 26.2 °F 28.4 °F 75% 29.96 in 1.8 mi WNW 15.0 mph 23.0 mph 0.00 in Snow Light Snow
3:54 PM 34.0 °F 23.8 °F 28.0 °F 79% 29.97 in 1.2 mi WNW 16.1 mph 24.2 mph 0.00 in Snow Light Snow
4:21 PM 33.8 °F 25.3 °F 28.4 °F 81% 29.97 in 1.2 mi WNW 11.5 mph 17.3 mph 0.00 in Snow Light Snow
4:26 PM 33.8 °F 24.8 °F 28.4 °F 81% 29.97 in 1.8 mi WNW 12.7 mph 18.4 mph 0.00 in Snow Light Snow
4:32 PM 33.8 °F 23.2 °F 28.4 °F 81% 29.98 in 1.8 mi WNW 17.3 mph - 0.00 in Snow Light Snow
4:50 PM 33.8 °F 22.8 °F 28.4 °F 81% 29.99 in 1.2 mi WNW 18.4 mph 23.0 mph 0.00 in Snow Light Snow
4:54 PM 34.0 °F 24.6 °F 28.9 °F 82% 30.00 in 1.5 mi WNW 13.8 mph 24.2 mph 0.00 in Snow Light Snow
5:01 PM 33.8 °F 23.9 °F 30.2 °F 87% 29.99 in 2.5 mi WNW 15.0 mph 23.0 mph 0.01 in Snow Light Snow
5:06 PM 33.8 °F 22.8 °F 28.4 °F 81% 29.99 in 1.8 mi WNW 18.4 mph 24.2 mph 0.01 in Snow Light Snow
5:14 PM 33.8 °F 23.2 °F 28.4 °F 81% 30.00 in 1.5 mi WNW 17.3 mph 24.2 mph 0.01 in Snow Light Snow
5:28 PM 33.8 °F 23.9 °F 28.4 °F 81% 30.00 in 1.2 mi WNW 15.0 mph 23.0 mph 0.01 in Snow Light Snow
5:36 PM 33.8 °F 25.8 °F 28.4 °F 81% 30.01 in 1.0 mi WNW 10.4 mph - 0.01 in Snow Light Snow
5:38 PM 33.8 °F 23.9 °F 28.4 °F 81% 30.01 in 1.0 mi WNW 15.0 mph 19.6 mph 0.01 in Snow Light Snow
5:54 PM 33.1 °F 24.4 °F 28.9 °F 85% 30.03 in 1.0 mi WNW 11.5 mph 19.6 mph 0.01 in Snow Light Snow
6:20 PM 33.8 °F 25.3 °F 30.2 °F 87% 30.03 in 1.5 mi WNW 11.5 mph - 0.01 in Snow Light Snow
6:45 PM 33.8 °F 24.8 °F 28.4 °F 81% 30.04 in 1.2 mi WNW 12.7 mph - 0.01 in Snow Light Snow
6:54 PM 33.1 °F 25.5 °F 30.0 °F 89% 30.06 in 1.2 mi WNW 9.2 mph - 0.01 in Snow Light Snow
7:14 PM 33.8 °F 24.3 °F 28.4 °F 81% 30.06 in 1.5 mi WNW 13.8 mph - 0.01 in Snow Light Snow
7:45 PM 33.8 °F 24.3 °F 28.4 °F 81% 30.07 in 2.0 mi WNW 13.8 mph - 0.01 in Snow Light Snow
7:54 PM 33.1 °F 23.9 °F 28.9 °F 85% 30.08 in 2.0 mi WNW 12.7 mph 19.6 mph 0.01 in Snow Light Snow
8:54 PM 32.0 °F 23.0 °F 28.9 °F 88% 30.10 in 2.0 mi WNW 11.5 mph - 0.01 in Snow Light Snow
9:03 PM 32.0 °F 22.5 °F 28.4 °F 87% 30.09 in 1.8 mi WNW 12.7 mph - 0.00 in Snow Light Snow
9:15 PM 32.0 °F 23.0 °F 28.4 °F 87% 30.10 in 2.0 mi WNW 11.5 mph - 0.01 in Snow Light Snow
9:31 PM 32.0 °F 22.1 °F 28.4 °F 87% 30.10 in 3.0 mi WNW 13.8 mph - 0.01 in Snow Light Snow
9:40 PM 32.0 °F 22.1 °F 28.4 °F 87% 30.10 in 4.0 mi WNW 13.8 mph - 0.01 in Snow Light Snow
9:54 PM 33.1 °F 24.4 °F 28.9 °F 85% 30.12 in 5.0 mi NW 11.5 mph - 0.02 in Snow Light Snow
10:54 PM 32.0 °F 23.0 °F 28.0 °F 85% 30.13 in 6.0 mi WNW 11.5 mph 18.4 mph 0.00 in   Overcast
11:07 PM 32.0 °F 23.0 °F 28.4 °F 87% 30.12 in 4.0 mi WNW 11.5 mph - 0.00 in Snow Light Snow
11:26 PM 32.0 °F 23.6 °F 28.4 °F 87% 30.12 in 6.0 mi WNW 10.4 mph - 0.00 in   Overcast
11:54 PM 32.0 °F 23.0 °F 28.0 °F 85% 30.13 in 9.0 mi WNW 11.5 mph - 0.00 in   Overcast